TimeCST,TemperatureF,Dew PointF,Humidity,Sea Level PressureIn,VisibilityMPH,Wind Direction,Wind SpeedMPH,Gust SpeedMPH,PrecipitationIn,Events,Conditions,WindDirDegrees,DateUTC
12:53 AM,46.9,35.1,63,30.12,10.0,South,10.4,-,N/A,,Overcast,180,2013-01-27 06:53:00
1:53 AM,46.9,37.9,71,30.09,10.0,SSE,9.2,-,0.00,,Overcast,160,2013-01-27 07:53:00
2:39 AM,46.4,39.2,76,30.05,10.0,SSE,10.4,-,N/A,,Overcast,160,2013-01-27 08:39:00
2:53 AM,46.9,39.9,77,30.05,10.0,SSE,11.5,-,N/A,,Overcast,160,2013-01-27 08:53:00
3:53 AM,46.9,41.0,80,30.06,10.0,South,11.5,19.6,N/A,,Overcast,170,2013-01-27 09:53:00
4:53 AM,46.9,41.0,80,30.04,10.0,South,11.5,16.1,N/A,,Overcast,170,2013-01-27 10:53:00
5:53 AM,46.9,42.1,83,30.03,10.0,South,12.7,18.4,N/A,,Overcast,170,2013-01-27 11:53:00
6:53 AM,46.9,44.1,90,30.04,10.0,South,8.1,-,N/A,,Overcast,170,2013-01-27 12:53:00
7:53 AM,48.0,45.0,89,30.03,5.0,South,8.1,-,N/A,,Overcast,180,2013-01-27 13:53:00
8:53 AM,48.9,46.9,93,30.02,4.0,South,10.4,-,N/A,,Overcast,180,2013-01-27 14:53:00
9:53 AM,52.0,48.9,89,30.01,9.0,South,10.4,-,N/A,,Overcast,170,2013-01-27 15:53:00
10:53 AM,55.0,52.0,89,30.00,10.0,South,9.2,20.7,0.00,Rain,Light Rain,170,2013-01-27 16:53:00
11:32 AM,57.2,51.8,82,29.99,10.0,SSW,11.5,-,0.00,,Overcast,200,2013-01-27 17:32:00
11:53 AM,57.9,52.0,81,29.99,10.0,South,12.7,21.9,0.00,Rain,Light Rain,190,2013-01-27 17:53:00
12:53 PM,57.9,52.0,81,29.96,10.0,South,15.0,23.0,0.00,,Overcast,190,2013-01-27 18:53:00
1:53 PM,59.0,53.1,81,29.92,10.0,South,12.7,27.6,0.00,,Overcast,190,2013-01-27 19:53:00
2:53 PM,61.0,53.1,75,29.91,10.0,South,15.0,21.9,N/A,,Overcast,190,2013-01-27 20:53:00
3:53 PM,62.1,54.0,75,29.89,10.0,South,13.8,27.6,N/A,,Overcast,180,2013-01-27 21:53:00
4:53 PM,62.1,54.0,75,29.89,10.0,South,15.0,-,N/A,,Overcast,180,2013-01-27 22:53:00
5:30 PM,62.6,53.6,72,29.87,10.0,South,17.3,25.3,N/A,,Overcast,180,2013-01-27 23:30:00
5:53 PM,61.0,54.0,78,29.89,10.0,South,11.5,-,N/A,,Overcast,180,2013-01-27 23:53:00
6:53 PM,60.1,54.0,80,29.90,10.0,South,9.2,-,N/A,,Overcast,170,2013-01-28 00:53:00
7:53 PM,60.1,55.0,83,29.90,10.0,South,10.4,-,N/A,,Overcast,170,2013-01-28 01:53:00
8:12 PM,60.8,55.4,82,29.89,10.0,South,10.4,-,N/A,,Overcast,170,2013-01-28 02:12:00
8:24 PM,60.8,55.4,82,29.89,10.0,South,8.1,17.3,N/A,,Overcast,170,2013-01-28 02:24:00
8:32 PM,60.8,55.4,82,29.89,10.0,South,6.9,-,N/A,,Overcast,170,2013-01-28 02:32:00
8:53 PM,59.0,55.0,87,29.91,10.0,SSE,6.9,-,N/A,,Mostly Cloudy,150,2013-01-28 02:53:00
9:16 PM,59.0,55.4,88,29.89,10.0,SSE,6.9,-,N/A,,Mostly Cloudy,160,2013-01-28 03:16:00
10:53 PM,57.0,54.0,89,29.92,8.0,SSE,5.8,-,N/A,,Clear,160,2013-01-28 04:53:00
11:53 PM,57.0,54.0,89,29.92,8.0,SSE,5.8,-,N/A,,Mostly Cloudy,150,2013-01-28 05:53:00